Probability
53 51 50 47 47 49 53 62 77 87 91 91 86 78 66 52 41 36 34 30 26 22 18 13 7 2 1 0 0 0 0 0 0 0 0 0 0 0 0 0 0 0 0
61 61 60 57 55 56 58 65 76 85 88 88 83 74 62 49 38 31 27 23 20 17 15 11 5 1 0 0 0 0 0 0 0 0 0 0 0 0 0 0 0 0 0
64 66 67 65 63 64 66 70 78 82 84 83 79 70 58 45 34 24 17 14 13 12 10 6 3 1 0 0 0 0 0 0 0 0 0 0 0 0 0 0 0 0 0
56 58 59 62 64 65 68 73 77 79 80 78 74 66 55 41 28 18 11 8 7 6 4 2 1 0 0 0 0 0 0 0 0 0 0 0 0 0 0 0 0 0 0
41 43 45 49 52 53 57 63 68 68 67 65 59 52 42 29 19 12 7 4 2 1 1 0 0 0 0 0 0 0 0 0 0 0 0 0 0 0 0 0 0 0 0
22 25 27 28 29 30 35 42 45 45 43 40 36 31 23 16 11 7 4 1 0 0 0 0 0 0 0 0 0 0 0 0 0 0 0 0 0 0 0 0 0 0 0
8 10 12 11 10 11 14 18 20 19 18 16 15 14 11 8 6 4 3 1 0 0 0 0 0 0 0 0 0 0 0 0 0 0 0 0 0 0 0 0 0 0 0
2 2 3 3 2 2 3 4 4 4 4 5 5 5 4 4 3 3 2 1 0 0 0 0 0 0 0 0 0 0 0 0 0 0 0 0 0 0 0 0 0 0 0
0 0 0 0 0 0 0 0 0 0 1 1 1 1 1 1 1 1 1 0 0 0 0 0 0 0 0 0 0 0 0 0 0 0 0 0 0 0 0 0 0 0 0
0 0 0 0 0 0 0 0 0 0 0 0 0 0 0 0 0 0 0 0 0 0 0 0 0 0 0 0 0 0 0 0 0 0 0 0 0 0 0 0 0 0 0
0 0 0 0 0 0 0 0 0 0 0 0 0 0 0 0 0 0 0 0 0 0 0 0 0 0 0 0 0 0 0 0 0 0 0 0 0 0 0 0 0 0 0
0 0 0 0 0 0 0 0 0 0 0 0 0 0 0 0 0 0 0 0 0 0 0 0 0 0 0 0 0 0 0 0 0 0 0 0 0 0 0 0 0 0 0
0 0 0 0 0 0 0 0 0 0 0 0 0 0 0 0 0 0 0 0 0 0 0 0 0 0 0 0 0 0 0 0 0 0 0 0 0 0 0 0 0 0 0
0 0 0 0 0 0 0 0 0 0 0 0 0 0 0 0 0 0 0 0 0 0 0 0 0 0 0 0 0 0 0 0 0 0 0 0 0 0 0 0 0 0 0
0 0 0 0 0 0 0 0 0 0 0 0 0 0 0 0 0 0 0 0 0 0 0 0 0 0 0 0 0 0 0 0 0 0 0 0 0 0 0 0 0 0 0
0 0 0 0 0 0 0 0 0 0 0 0 0 0 0 0 0 0 0 0 0 0 0 0 0 0 0 0 0 0 0 0 0 0 0 0 0 0 0 0 0 0 0
0 0 0 0 0 0 0 0 0 0 0 0 0 0 0 0 0 0 0 0 0 0 0 0 0 0 0 0 0 0 0 0 0 0 0 0 0 0 0 0 0 0 0
0 0 0 0 0 0 0 0 0 0 0 0 0 0 0 0 0 0 0 0 0 0 0 0 0 0 0 0 0 0 0 0 0 0 0 0 0 0 0 0 0 0 0
0 0 0 0 0 0 0 0 0 0 0 0 0 0 0 0 0 0 0 0 0 0 0 0 0 0 0 0 0 0 0 0 0 0 0 0 0 0 0 0 0 0 0
0 0 0 0 0 0 0 0 0 0 0 0 0 0 0 0 0 0 0 0 0 0 0 0 0 0 0 0 0 0 0 0 0 0 0 0 0 0 0 0 0 0 0
0 0 0 0 0 0 0 0 0 0 0 0 0 0 0 0 0 0 0 0 0 0 0 0 0 0 0 0 0 0 0 0 0 0 0 0 0 0 0 0 0 0 0
0 0 0 0 0 0 0 0 0 0 0 0 0 0 0 0 0 0 0 0 0 0 0 0 0 0 0 0 0 0 0 0 0 0 0 0 0 0 0 0 0 0 0
0 0 0 0 0 0 0 0 0 0 0 0 0 0 0 0 0 0 0 0 0 0 0 0 0 0 0 0 0 0 0 0 0 0 0 0 0 0 0 0 0 0 0
0 0 0 0 0 0 0 0 0 0 0 0 0 0 0 0 0 0 0 0 0 0 0 0 0 0 0 0 0 0 0 0 0 0 0 0 0 0 0 0 0 0 0
0 0 0 0 0 0 0 0 0 0 0 0 0 0 0 0 0 0 0 0 0 0 0 0 0 0 0 0 0 0 0 0 0 0 0 0 0 0 0 0 0 0 0
0 0 0 0 0 0 0 0 0 0 0 0 0 0 0 0 0 0 0 0 0 0 0 0 0 0 0 0 0 0 0 0 0 0 0 0 0 0 0 0 0 0 0
Wind_Speed
4 4 4 6 7 6 6 8 9 10 10 8 7 6 5 5 5 4 5 5 6 6 6 5 5 4 4 3 4 3 4 3 1 2 2 2 2 2 1 1 1 1 1
6 5 4 5 6 6 6 6 8 10 10 7 6 5 6 5 5 5 6 6 6 6 5 6 4 4 4 5 4 3 3 2 2 2 2 1 3 3 2 2 1 1 1
8 6 6 6 5 4 4 6 6 7 8 8 7 8 6 5 4 5 5 5 7 7 7 6 5 5 4 4 3 3 4 2 2 3 2 2 2 2 3 2 2 2 2
9 8 8 8 7 5 4 5 5 6 6 8 9 10 7 6 5 5 6 7 8 8 7 7 6 6 5 5 4 4 3 3 2 2 3 2 2 1 2 3 3 3 3
10 10 10 10 10 10 8 7 8 8 6 6 7 8 7 7 7 7 9 8 7 8 8 7 7 6 5 6 6 5 5 3 3 2 2 2 2 2 1 2 4 4 3
10 11 11 11 12 12 11 11 12 11 9 9 8 9 11 11 10 9 8 7 6 6 8 8 7 7 6 6 6 6 7 5 5 4 3 2 2 1 1 1 2 3 3
10 11 12 13 13 13 13 12 14 13 12 12 11 10 11 11 11 9 8 7 6 5 6 7 7 6 6 6 6 6 6 5 5 4 3 2 2 1 1 1 1 2 3
10 11 11 11 12 13 13 14 15 14 13 14 13 12 11 9 8 9 8 8 6 5 6 7 7 7 7 7 6 5 5 5 5 5 3 2 2 2 1 1 0 2 3
10 11 11 12 12 13 13 14 15 15 14 14 14 14 13 12 11 10 9 7 6 6 7 7 7 7 6 6 6 5 4 5 4 4 4 3 2 2 1 1 1 1 1
10 11 11 12 12 13 13 14 15 15 14 13 13 12 12 11 10 9 9 8 7 6 6 6 6 6 7 6 6 5 5 6 4 3 4 3 2 2 2 1 1 2 2
10 10 11 11 12 12 13 13 14 14 13 13 12 12 11 10 9 8 7 6 6 6 6 6 7 8 8 7 7 6 6 6 5 4 4 3 2 2 2 1 1 0 1
10 11 11 12 12 12 12 12 12 12 12 11 11 11 10 10 9 8 7 7 7 6 7 8 9 9 9 7 7 7 7 6 5 4 4 4 3 3 2 2 2 2 2
11 11 11 11 12 11 11 11 11 10 10 10 11 10 10 9 9 8 7 7 8 8 8 9 9 8 7 7 6 5 5 5 4 4 4 4 4 4 3 3 3 3 3
10 11 11 10 10 9 9 9 9 9 9 10 10 10 8 8 8 8 8 7 8 8 8 8 7 7 6 6 5 5 5 5 5 5 4 4 4 4 4 4 4 3 4
10 10 10 9 9 8 8 9 8 8 9 9 9 8 7 7 7 8 7 7 7 8 6 6 5 5 4 4 4 4 5 5 6 6 5 5 7 6 3 2 3 3 3
10 10 9 9 9 8 8 8 8 7 7 8 7 7 7 7 7 6 6 6 6 5 5 5 4 3 3 4 6 5 4 5 5 6 6 6 5 7 7 8 9 8 6
9 9 8 8 8 7 7 7 7 6 7 7 6 6 6 6 5 5 5 5 4 4 3 2 2 2 1 3 6 8 4 5 5 5 5 5 5 5 4 8 12 11 14
8 8 7 7 6 6 6 6 6 6 6 5 5 5 5 5 4 4 4 3 2 2 1 1 1 1 2 2 4 7 5 4 5 6 6 5 5 4 5 6 8 8 9
8 7 6 6 6 5 5 5 5 5 5 4 4 3 4 4 3 3 2 1 1 1 1 1 2 2 3 3 3 5 4 4 6 7 6 6 5 8 9 7 8 10 10
7 6 6 6 5 4 5 5 4 4 3 3 3 3 3 3 2 1 0 1 1 1 1 1 1 2 2 4 4 4 2 4 5 6 7 9 9 12 12 7 7 9 10
7 6 6 5 4 4 5 5 4 3 2 3 3 3 2 2 2 1 0 1 2 2 2 2 2 1 1 2 5 7 3 4 5 5 6 7 12 15 15 11 6 9 10
6 6 5 4 3 4 4 4 2 1 2 3 2 1 1 1 1 0 1 2 2 3 3 3 3 2 3 3 6 9 8 7 4 5 6 8 14 16 15 10 9 12 9
5 5 5 4 3 3 4 3 1 2 2 1 1 0 1 1 1 0 1 1 2 2 2 2 2 2 2 4 8 9 11 11 5 5 11 14 15 13 9 10 13 10 4
5 4 5 4 2 2 3 2 2 2 2 1 1 1 1 1 2 1 0 1 1 1 1 1 1 2 3 4 4 5 6 8 7 7 10 13 11 9 8 9 7 5 4
4 4 4 4 3 2 2 2 2 2 2 1 2 2 1 1 1 1 0 2 2 3 3 2 1 1 3 5 8 6 5 5 6 7 5 4 5 7 7 7 6 5 4
4 4 4 4 3 3 2 2 2 3 3 2 2 2 1 1 1 1 1 2 1 2 3 3 2 2 4 8 9 10 11 11 10 5 3 5 6 6 7 7 6 5 4
Wind_Direction
164 157 167 166 165 173 184 182 171 171 164 158 153 141 130 119 107 102 103 104 104 106 109 111 104 103 102 103 105 100 88 60 39 75 36 8 20 29 21 11 54 65 104
97 91 96 116 144 170 184 177 177 173 172 162 149 132 124 114 104 95 85 91 98 96 98 101 103 100 102 98 92 101 103 68 32 95 92 352 341 354 4 360 6 2 2
96 83 76 78 95 116 155 170 172 169 158 137 120 112 104 101 95 91 84 74 87 89 91 93 93 93 100 104 94 97 115 118 50 47 125 156 235 310 331 356 15 355 346
68 68 62 62 60 53 73 108 132 133 131 132 139 142 141 135 120 109 98 81 73 78 82 85 87 85 84 87 82 77 90 109 99 49 43 77 128 141 319 332 350 357 359
55 55 51 52 50 46 56 70 84 84 89 103 122 123 116 112 109 104 97 84 72 70 76 82 84 84 81 79 74 73 71 76 92 87 67 58 50 64 120 308 331 342 340
52 51 48 48 50 51 54 61 72 69 70 78 87 105 113 115 112 104 98 85 76 68 67 76 76 78 80 76 73 72 72 71 73 67 63 72 72 45 74 270 306 313 306
51 49 47 47 48 50 53 60 68 66 66 74 76 84 95 99 101 102 98 94 83 76 72 74 74 72 72 72 71 70 66 65 71 70 67 64 64 64 94 102 305 304 303
59 56 54 54 55 56 57 62 67 67 67 71 73 72 77 82 84 86 91 88 85 80 80 77 74 70 67 66 65 66 64 64 64 61 60 56 40 51 80 125 133 337 323
70 67 63 61 61 61 60 64 69 68 68 71 75 73 73 79 84 85 85 86 88 89 81 80 75 69 68 66 64 59 52 54 51 49 49 45 23 31 49 92 134 143 297
79 75 72 70 68 67 67 67 70 71 70 72 75 80 79 81 82 83 84 85 83 84 83 78 77 70 62 60 63 57 49 53 42 45 45 31 12 16 17 33 77 153 181
87 84 82 80 77 74 72 73 73 75 74 74 77 79 77 77 79 80 80 80 79 77 78 77 73 68 61 58 60 56 51 50 38 30 34 17 6 6 353 357 352 278 188
90 86 84 83 79 77 76 75 76 77 77 78 79 78 77 76 76 74 70 70 69 66 69 72 73 71 65 57 56 50 42 36 25 10 8 347 343 340 321 312 302 288 263
99 94 88 85 84 83 83 82 81 80 79 79 79 77 74 72 70 67 64 64 65 65 71 76 75 72 66 58 50 44 34 21 5 349 342 326 327 312 297 290 286 282 289
106 102 97 92 91 88 86 85 82 82 83 81 80 77 73 71 68 66 64 64 70 74 77 78 78 75 67 56 39 28 18 0 346 336 328 319 305 286 284 284 282 282 292
107 103 101 98 94 90 86 84 81 78 81 81 78 77 76 75 71 68 67 66 71 80 84 86 80 74 67 51 36 11 2 347 336 330 325 317 320 331 318 303 288 287 285
109 106 103 100 95 92 90 87 83 80 81 81 76 70 70 72 71 70 67 68 70 75 81 86 90 78 65 41 27 12 349 336 331 325 322 316 321 335 343 343 331 317 299
108 103 98 95 92 88 90 91 88 80 77 76 76 74 77 77 72 75 69 66 68 75 83 91 103 101 18 15 8 4 360 341 333 324 318 322 328 337 329 322 320 312 303
106 103 101 98 93 91 89 88 85 85 84 82 82 80 82 80 76 74 71 65 65 74 97 144 178 189 270 322 349 355 358 341 331 323 317 315 311 307 310 307 306 299 294
111 107 106 103 98 97 97 92 87 86 87 88 94 94 94 94 83 75 62 38 38 352 278 237 217 224 266 286 322 354 340 330 325 321 323 320 307 299 309 308 303 303 300
105 104 101 98 98 98 98 94 91 90 95 104 105 102 108 112 111 116 337 307 284 282 293 289 264 243 257 277 297 338 333 325 320 318 315 316 311 308 310 301 291 295 297
105 102 100 100 106 106 98 95 91 96 116 117 106 100 111 137 155 174 287 323 347 351 345 342 344 354 326 319 321 334 328 310 312 313 313 310 313 313 311 306 280 276 287
107 106 103 103 108 111 106 105 120 151 126 111 102 104 120 198 153 80 329 356 19 24 13 17 11 8 11 11 348 348 344 339 312 303 303 305 311 315 316 315 307 309 312
110 109 113 108 101 112 121 126 176 170 143 127 140 255 292 294 247 241 341 31 49 59 35 32 18 349 343 339 347 345 339 338 328 300 308 313 316 320 320 317 318 321 321
118 117 112 108 112 130 135 156 169 152 144 178 255 271 276 294 310 326 128 129 116 98 71 31 0 328 322 325 333 331 328 330 329 320 316 316 318 325 320 319 322 320 313
123 122 124 130 145 146 152 185 184 151 159 246 277 286 266 269 304 338 192 176 201 183 169 192 220 299 316 309 319 319 316 315 310 315 315 328 335 339 336 333 328 325 333
121 123 133 147 160 161 181 213 202 173 175 226 270 273 247 237 186 151 17 353 214 182 173 185 197 258 277 308 323 327 324 325 327 329 327 329 331 329 328 329 326 322 324